sat.trackr.live / text

‹ back to catalog

COSMOS 2588

NORAD 64095 · 2025-109A

PAYLOAD ACTIVE UNKNOWN

§ Identity

Operator
Country
CIS
Launch date
2025-05-23
Launch site
PLMSC
Launch vehicle
Mass (kg)
RCS (m²)

External: N2YO · Heavens-Above · Gunter

§ Orbital elements

Epoch: 2026-09-21T13:51:57.627648Z

Period
94.21 min
Inclination
72.9738°
Eccentricity
0.0008674
Mean motion
15.28479663 rev/d
Perigee alt
474.4 km
Apogee alt
486.3 km
Semi-major
6,858.5 km
B*
2.1561e-4
RAAN
350.5374°
Arg perigee
214.2374°
Mean anomaly
145.8263°
Rev number
7,434

§ Raw data

COSMOS 25881 64095U 25109A   26264.57775032  .00005920  00000+0  21561-3 0  99902 64095  72.9738 350.5374 0008674 214.2374 145.8263 15.28479663 74345

JSON: /api/v1/satellites/64095 · /tle

For live sub-satellite position, see the globe view (requires WebGL).

§ Visibility from observer

Set your observer location to see the next 7 days of passes ≥ 10°. The values pass through the URL so the page stays shareable.

No JS? Fill the form by hand. The geolocation button needs JavaScript.

§ Radio — SatNOGS DB

ModeDescriptionDownlinkUplink
FM S-band telemetry 2.284 GHz

1 transmitter · refreshed weekly from db.satnogs.org